Regional Weather Roundup
Issued by NWS Midland/Odessa, TX

Skip options and go directly to product.
Home | Oldest Version | Previous Version | Current Version | All | Text Only | Save Text | Print | Product List | Glossary Off

Skip product version selection by date and time.   

366
ASUS44 KMAF 260110
RWRMAF
MIDLAND AREA WEATHER ROUNDUP
NATIONAL WEATHER SERVICE MIDLAND TX
800 PM CDT SAT OCT 25 2014

...IN SOUTHWEST TEXAS AND SOUTHEAST NEW MEXICO...

CITY           SKY/WX    TMP DP  RH WIND       PRES   REMARKS
ALPINE         CLEAR     68  46  45 SW9       30.24S
ANDREWS        FAIR      75  49  41 SW3       30.11S
ARTESIA        NOT AVBL
BIG SPRING     CLEAR     74  53  47 SE7       30.11R
CARLSBAD       CLEAR     70  57  63 S6        30.07R
DRYDEN           N/A     78  55  44 E9        30.08S
FORT STOCKTON  CLEAR     75  49  39 S6        30.09S
GUAD PASS      CLEAR     70  37  29 W16       30.24S
HOBBS          CLEAR     68  50  52 S7        30.13R
MARFA          CLEAR     66  48  52 S5        30.24S
MIDLAND AIRPK  CLEAR     78  49  36 S6        30.10R
MIDLAND INTL   CLEAR     78  48  34 S8        30.09R
ODESSA         CLEAR     77  48  35 S7        30.10S
PECOS          CLEAR     73  54  51 E7        30.06R
PRESIDIO       FAIR      78  47  33 NW5       30.09R
SEMINOLE       CLEAR     69  52  55 SW3       30.12S
SNYDER         CLEAR     74  53  48 SE8       30.09S
WINK           CLEAR     76  50  40 E5        30.06S
$$
...OTHER STATIONS IN TEXAS...

CITY           SKY/WX    TMP DP  RH WIND       PRES   REMARKS
ABILENE        CLEAR     78  49  35 SE6       30.08S
AMARILLO       CLEAR     70  50  49 SE12      30.07F
AUSTIN         CLEAR     71  60  68 S3        30.08R
BROWNSVILLE    CLEAR     72  66  81 E6        30.09S
CORPUS CHRISTI CLEAR     72  64  76 SE7       30.09S
DALLAS FTW     CLEAR     79  59  50 S7        30.04S
DEL RIO        CLEAR     78  58  49 SE6       30.05S
EL PASO        CLEAR     79  44  28 SW3       30.12S
HOUSTON INT    CLEAR     67  58  72 S3        30.09S
LUBBOCK        CLEAR     70  52  52 SE12      30.09S
SAN ANGELO     CLEAR     76  48  37 S6        30.08S
SAN ANTONIO    CLEAR     78  56  46 SE8       30.09R
WACO           CLEAR     75  60  59 SE7       30.07R
WICHITA FALLS  NOT AVBL
$$
...OTHER LOCATIONS IN NEW MEXICO...

CITY           SKY/WX    TMP DP  RH WIND       PRES   REMARKS
ALAMAGORDO     NOT AVBL
ALBUQUERQUE    PTCLDY    72  34  24 S5        30.17S
CANNON AFB     CLEAR     72  39  30 SW9       30.12S
CLOVIS         CLEAR     66  39  37 S12       30.14R
HOLLOMAN AFB   PTCLDY    73  45  36 SE7       30.12S
ROSWELL        CLEAR     72  53  51 S9        30.08S
RUIDOSO        CLEAR     61  36  39 W10       30.31S
SANTA FE       CLEAR     64  27  24 SW5       30.21F
TRUTH OR CONSE CLEAR     73  44  35 SE7       30.14S
TUCUMCARI      CLEAR     74  40  29 S12       30.05S
$$

USA.gov is the U.S. government's official web portal to all federal, state and local government web resources and services.